Flag for Spain Weather past 2 weeks in Barcelona, Barcelona, Spain

Now
75 °F

Clear.


Feels Like: 78 °F
Forecast: 67 / 87 °F
Wind: 8 mph from Northwest

Location: Barcelona Airport

Current Time: Jun 30, 2015 at 5:40:00 AM

Latest Report: Jun 30, 2015 at 5:00 AM


Visibility: 10 mi

Pressure: 30.04 "Hg

Humidity: 57%

Dew point: 59 °F

Location of BarcelonaLocation

Historic Weather in Barcelona — Graph

°F

Barcelona temperature yesterday

Maximum temperature yesterday: 90 °F (at 3:00 PM)
Minimum temperature yesterday: 72 °F (at 7:00 AM)
Average temperature yesterday: 80 °F

Past Weeks' High & Low Weather Summary

 TemperatureHumidityPressure
High90 °F (Jun 29, 3:00 PM)94% (Jun 27, 2:00 AM)30.18 "Hg (Jun 27, 2:00 AM)
Low63 °F (Jun 16, 6:30 AM)31% (Jun 29, 3:00 PM)29.83 "Hg (Jun 23, 5:30 AM)
Average74 °F70%30.06 "Hg
* Reported Jun 15 4:00 AM — Jun 30 4:30 AM, Barcelona, Weather by CustomWeather, © 2015

Note: Actual official high and low records may vary slightly from our data, if they occured in-between our weather recording intervals... More about our weather records

Advertising

Barcelona weather history for previous 24 hours

 ConditionsComfort  
Time TempWeatherWind HumidityBarometerVisibility
4:30 AM
Tue, Jun 30
75 °FClear.7 mph57%30.07 "Hg10 mi
4:00 AM75 °FClear.8 mph57%30.07 "Hg10 mi
3:30 AM75 °FClear.7 mph57%30.07 "Hg10 mi
3:00 AM75 °FClear.7 mph57%30.07 "Hg10 mi
2:30 AM75 °FClear.8 mph57%30.07 "Hg10 mi
2:00 AM77 °FClear.6 mph54%30.09 "Hg10 mi
1:30 AM77 °FClear.5 mph51%30.09 "Hg10 mi
12:30 AM77 °FClear.2 mph51%30.09 "Hg10 mi
11:30 PM
Mon, Jun 29
79 °FClear.6 mph58%30.09 "Hg10 mi
11:00 PM79 °FPassing clouds.6 mph58%30.09 "HgN/A
10:30 PM81 °FClear.6 mph51%30.09 "Hg10 mi
10:00 PM81 °FSunny.6 mph48%30.09 "Hg10 mi
9:30 PM81 °FSunny.7 mph48%30.09 "Hg10 mi
9:00 PM82 °FSunny.6 mph42%30.09 "Hg10 mi
8:30 PM82 °FSunny.9 mph45%30.09 "Hg10 mi
8:00 PM84 °FSunny.13 mph43%30.09 "Hg10 mi
7:30 PM84 °FSunny.15 mph45%30.09 "Hg10 mi
7:00 PM84 °FSunny.15 mph43%30.09 "Hg10 mi
6:30 PM86 °FSunny.16 mph43%30.09 "Hg10 mi
6:00 PM86 °FSunny.18 mph43%30.09 "Hg10 mi
5:30 PM86 °FSunny.18 mph43%30.09 "Hg10 mi
5:00 PM86 °FSunny.16 mph49%30.09 "Hg10 mi
4:30 PM86 °FPassing clouds.15 mph49%30.09 "HgN/A
4:00 PM86 °FSunny.14 mph52%30.12 "Hg10 mi
3:30 PM86 °FSunny.13 mph46%30.12 "Hg10 mi
3:00 PM90 °FPassing clouds.12 mph31%30.12 "HgN/A
2:30 PM86 °FSunny.13 mph46%30.12 "Hg10 mi
2:00 PM84 °FSunny.12 mph51%30.15 "Hg10 mi
1:30 PM84 °FSunny.14 mph55%30.15 "Hg10 mi
1:00 PM82 °FSunny.13 mph58%30.12 "Hg10 mi
12:30 PM81 °FPassing clouds.10 mph66%30.12 "HgN/A
12:00 PM82 °FPassing clouds.9 mph58%30.12 "HgN/A
11:30 AM82 °FPassing clouds.8 mph51%30.12 "HgN/A
11:00 AM82 °FPassing clouds.6 mph55%30.12 "HgN/A
10:30 AM82 °FPassing clouds.7 mph58%30.12 "HgN/A
10:00 AM84 °FSunny.1 mph48%30.12 "Hg10 mi
9:30 AM81 °FPassing clouds.5 mph54%30.12 "HgN/A
9:00 AM79 °FPassing clouds.7 mph65%30.12 "HgN/A
8:30 AM77 °FPassing clouds.8 mph65%30.12 "HgN/A
8:00 AM75 °FSunny.8 mph65%30.12 "Hg10 mi
7:30 AM73 °FSunny.7 mph65%30.09 "Hg10 mi
7:00 AM72 °FClear.8 mph73%30.09 "Hg10 mi
6:30 AM73 °FClear.7 mph69%30.09 "Hg10 mi
5:30 AM73 °FClear.8 mph69%30.09 "Hg10 mi
5:00 AM73 °FClear.8 mph69%30.09 "Hg10 mi
Weather by CustomWeather, © 2015

See weather overviewHow to use our weather pages